Vertical_Velocity
-1 -1 -2 -1 -1 -1 -0 -0 0 0 -0 -1 -0 -1 -3 -0 -2 -2 3 6 -2 -4 -1 -0 -2 -1 -0 -1 0 0 -0 1 1 0 3 1 3 4 -2 1 -5 -3 0 4 0
-0 -0 -1 -1 -1 -1 -2 -0 -0 -0 -1 -1 -2 1 -2 -3 -1 -4 -2 -1 -1 -3 -5 -2 -1 -1 0 -0 -2 1 1 1 -3 0 -1 -4 1 5 -3 -1 -1 -2 -1 -2 2
0 0 1 0 -1 -1 -1 -2 -1 -1 -1 -1 -2 -1 0 -1 -2 -3 1 -0 0 7 1 3 -2 3 0 3 -2 -1 -3 -1 -1 0 1 -0 -3 1 4 -0 4 4 2 2 -1
-1 0 1 1 -1 -1 0 -1 -1 -1 -0 -0 -1 -1 -0 2 -4 -1 -1 0 -1 1 4 -0 -6 -1 -1 -0 -1 -8 1 -1 3 1 2 2 -0 -2 2 0 -3 1 0 5 0
-0 -0 -1 -1 0 0 -0 -0 -1 -1 -0 0 -2 -0 -1 -0 8 2 -3 -0 -1 -1 -2 0 -2 -3 -1 1 -1 -4 2 -0 2 -0 -1 -1 -1 0 -4 -2 1 -1 1 -1 5
-1 -1 -1 -2 -1 1 -2 -1 2 2 0 -0 0 -1 -2 -2 -3 -5 -3 -2 -0 -1 -2 -4 -1 10 7 1 -0 -2 -2 5 -3 1 -3 -0 3 -0 3 -5 0 -3 4 -3 2
-0 -1 -2 -2 1 -2 -1 0 0 3 1 -0 -1 -1 -1 14 1 -2 -2 1 1 1 -2 1 2 -1 2 7 4 2 -7 5 4 3 -3 2 -7 -7 -4 -1 2 -4 -2 -1 1
0 -1 -1 -3 -0 -2 -1 0 -2 0 1 1 -1 -1 -2 2 2 2 -0 -0 -3 -1 1 7 4 12 3 1 0 1 -1 -0 8 3 0 7 -14 6 -1 2 -2 -0 -3 -2 -1
-1 0 -1 -2 -2 -1 -2 -1 -1 -1 1 1 -0 0 3 5 -1 4 4 5 7 3 -0 2 5 -1 4 -2 6 0 -3 -4 -3 4 4 -1 -1 2 3 2 -1 -2 -1 0 -5
-2 1 0 -2 -2 -1 -3 -3 -1 -1 0 2 -1 -0 1 1 -0 1 4 3 1 5 1 -2 0 -2 0 3 -13 -3 -5 -4 -9 2 -3 -2 -3 6 2 1 2 5 1 -1 -4
-3 -4 4 -3 -1 -4 1 -3 -4 -6 1 3 -2 2 2 2 3 0 5 -0 -0 7 -4 1 -4 -24 -0 -0 -2 -1 3 -1 -1 -8 3 -4 -3 0 -2 -0 -3 2 -5 -2 -2
-4 -3 -1 2 -1 -4 -2 -3 -3 -7 -11 1 4 -4 1 2 1 1 2 -8 -8 -7 1 4 -22 5 3 -2 1 3 -3 -2 -1 0 4 0 -4 -2 -5 1 1 4 3 -6 8
-3 -3 -4 2 1 -1 -2 -1 -2 -2 -7 2 1 -5 12 -0 2 -1 5 2 3 3 -7 -5 1 1 -2 1 -2 -4 -6 3 1 5 -1 1 -7 -4 -5 -4 -2 -3 8 7 7
-4 -5 -4 1 3 3 -0 -1 -1 -2 -5 -12 3 -5 7 3 -9 8 6 13 3 -7 14 4 6 2 1 -1 7 1 10 0 1 3 -7 4 -16 -4 -1 -4 -8 2 -5 5 -0
-5 -5 -3 -8 -3 1 1 -1 2 -2 4 1 2 2 4 6 -1 6 11 11 2 -1 -5 -22 -10 -4 -3 -15 -0 -6 3 -4 4 2 6 3 7 -13 -2 -5 -7 -1 -1 -3 1
-3 -4 -5 -3 -4 -1 2 2 2 4 -11 3 3 3 3 3 4 6 6 13 11 10 7 16 4 11 -1 1 0 8 4 6 5 4 12 -10 10 -20 -12 -11 -5 -3 -1 -4 -3
-3 -5 -5 -5 -7 -5 2 6 4 3 5 6 5 4 1 3 4 3 3 -5 -15 4 1 7 -3 -2 5 9 6 9 10 6 12 13 -11 3 11 -35 8 -12 -10 -8 3 1 -1
-1 -3 -3 -4 -4 -3 2 7 9 7 5 2 1 4 4 3 3 2 4 4 9 5 5 -4 20 1 -1 -8 -18 -10 -7 -9 -6 -0 -8 -4 -11 -25 -5 -8 -12 3 1 14 1
-6 2 0 -2 -1 -5 1 6 10 4 1 -4 3 1 4 4 5 5 5 11 2 6 2 1 1 3 -8 -3 -4 4 -2 -6 9 -2 3 -11 -13 -16 -2 -3 -7 -9 -0 -6 -7
-11 -10 0 -0 -1 -5 -0 3 8 2 -2 3 2 2 3 5 5 6 5 3 7 3 5 6 4 2 5 23 12 -7 18 2 6 4 0 -1 -4 -13 -5 -9 -0 -3 -14 -2 -0
-8 -9 -4 -6 -4 -5 0 1 2 5 -4 -2 1 -2 3 2 4 4 4 2 8 3 5 2 2 3 16 -1 -15 -2 10 10 6 -4 -2 -0 -11 -10 -14 -7 -6 -4 -4 -3 -1
-6 -9 -5 -5 -4 -5 -3 -3 -4 2 3 -2 -1 -2 -2 -4 2 5 4 4 5 3 5 1 3 -2 -6 7 8 2 -1 -4 1 -1 -10 7 -10 -4 2 9 11 9 7 6 -2
-8 -1 -6 -9 -5 -4 1 -1 -2 1 -2 2 6 0 0 -2 -0 1 4 2 -0 3 2 4 4 4 3 12 15 4 11 -0 -0 16 -8 2 -2 -4 -3 1 -2 1 5 6 2
-8 -6 -4 -3 -3 -3 -5 -3 -3 3 4 0 2 -0 0 -0 -5 5 0 1 2 -1 -2 1 1 -0 -5 -6 9 2 6 9 4 14 -17 -17 -7 -3 -5 4 2 -1 3 7 6
-6 -1 -0 -7 -1 -0 0 -2 -1 -4 5 -1 9 12 -0 3 5 4 -3 1 -0 -0 -1 -1 0 -1 3 -1 2 -3 2 0 1 -11 18 -19 5 -5 -11 -19 -1 2 -5 -2 1
-1 -3 -2 -2 -1 -3 1 1 -0 0 2 3 3 12 4 0 -1 -4 -2 -3 -0 -2 -2 -4 1 -3 -7 -2 -0 -6 -2 0 -0 -4 -0 -0 -11 6 4 -7 -9 -9 -1 -6 6
-6 -1 -4 -2 -4 1 2 3 -0 2 1 2 0 -2 3 -2 1 1 -1 -1 -0 -2 -0 -2 -1 -2 -6 -6 -4 -4 -19 -1 -0 -3 -9 0 -10 -9 -4 -10 -10 -7 -4 -9 -2
Height
3147 3145 3144 3142 3141 3139 3138 3137 3136 3136 3136 3136 3136 3137 3137 3137 3136 3136 3138 3139 3140 3142 3148 3153 3157 3161 3163 3164 3164 3165 3167 3167 3167 3168 3169 3168 3169 3168 3167 3168 3169 3170 3172 3174 3174
3144 3142 3141 3139 3137 3136 3134 3134 3133 3132 3132 3132 3131 3132 3132 3133 3133 3133 3135 3135 3136 3140 3144 3150 3154 3158 3160 3161 3163 3163 3165 3167 3168 3168 3168 3168 3169 3169 3170 3169 3169 3171 3172 3175 3175
3140 3139 3137 3135 3134 3132 3131 3130 3129 3129 3128 3127 3127 3126 3127 3129 3130 3129 3130 3132 3133 3137 3141 3146 3151 3154 3157 3159 3161 3162 3165 3166 3167 3167 3168 3168 3169 3170 3171 3170 3171 3172 3172 3174 3176
3137 3135 3133 3131 3129 3128 3127 3126 3125 3124 3124 3124 3122 3122 3122 3124 3128 3125 3126 3127 3129 3132 3136 3139 3144 3150 3154 3156 3159 3161 3163 3165 3166 3167 3168 3168 3169 3170 3172 3172 3172 3172 3172 3176 3177
3133 3131 3128 3126 3125 3123 3123 3122 3120 3120 3120 3119 3118 3118 3118 3119 3122 3121 3123 3124 3126 3129 3131 3137 3141 3146 3150 3153 3156 3158 3161 3162 3164 3165 3166 3167 3168 3169 3171 3172 3172 3172 3173 3174 3178
3129 3127 3124 3122 3120 3118 3117 3117 3117 3116 3115 3114 3114 3114 3114 3115 3116 3116 3119 3122 3124 3127 3129 3133 3139 3145 3148 3150 3153 3155 3157 3159 3161 3162 3163 3165 3166 3166 3168 3171 3172 3173 3174 3173 3177
3125 3123 3119 3117 3115 3113 3112 3111 3111 3111 3110 3109 3109 3109 3110 3114 3112 3113 3116 3120 3122 3125 3127 3133 3137 3142 3145 3146 3150 3152 3153 3155 3158 3160 3161 3163 3162 3161 3164 3167 3170 3172 3173 3174 3175
3121 3118 3115 3112 3109 3107 3106 3105 3105 3105 3105 3104 3104 3104 3104 3106 3107 3108 3111 3115 3119 3122 3125 3130 3134 3139 3140 3143 3145 3148 3150 3151 3155 3157 3159 3160 3157 3160 3162 3164 3166 3169 3171 3172 3174
3117 3115 3111 3107 3104 3103 3101 3099 3098 3098 3098 3098 3099 3098 3098 3099 3100 3104 3107 3112 3116 3119 3122 3125 3128 3131 3135 3138 3141 3142 3146 3147 3150 3153 3155 3156 3155 3157 3157 3160 3162 3165 3169 3170 3172
3112 3111 3106 3103 3099 3098 3095 3093 3092 3092 3092 3092 3092 3096 3094 3094 3095 3097 3102 3107 3111 3115 3117 3119 3122 3124 3125 3129 3129 3137 3141 3145 3146 3151 3152 3152 3151 3153 3153 3156 3158 3161 3165 3167 3169
3106 3104 3102 3097 3093 3091 3091 3089 3089 3087 3085 3085 3086 3087 3087 3088 3089 3092 3096 3100 3104 3109 3108 3113 3115 3107 3117 3124 3131 3135 3139 3142 3144 3147 3148 3148 3149 3150 3150 3151 3154 3156 3161 3164 3168
3098 3097 3095 3092 3088 3083 3082 3082 3081 3079 3076 3076 3077 3078 3081 3082 3084 3086 3090 3093 3094 3097 3105 3109 3098 3111 3118 3122 3126 3130 3134 3137 3140 3144 3145 3145 3145 3146 3145 3147 3150 3153 3156 3160 3165
3089 3087 3086 3085 3082 3077 3076 3075 3073 3070 3067 3069 3068 3067 3074 3075 3078 3080 3083 3086 3089 3092 3093 3095 3101 3108 3112 3116 3121 3123 3126 3133 3137 3140 3141 3142 3141 3141 3142 3144 3145 3146 3150 3158 3160
3084 3079 3075 3077 3078 3072 3069 3068 3067 3064 3062 3058 3056 3056 3059 3063 3065 3073 3076 3083 3083 3084 3092 3096 3102 3102 3104 3108 3115 3117 3123 3130 3133 3138 3137 3138 3133 3134 3137 3139 3140 3141 3144 3149 3154
3079 3072 3070 3067 3067 3066 3063 3060 3061 3063 3061 3052 3048 3049 3049 3056 3057 3060 3070 3073 3075 3079 3085 3082 3089 3096 3098 3100 3109 3115 3121 3126 3132 3134 3135 3132 3133 3128 3131 3132 3135 3137 3140 3143 3147
3074 3066 3064 3061 3060 3060 3057 3056 3058 3063 3051 3045 3043 3044 3046 3048 3050 3052 3056 3066 3074 3078 3079 3086 3087 3093 3094 3101 3105 3114 3120 3125 3128 3132 3123 3125 3129 3116 3122 3124 3132 3135 3136 3139 3142
3068 3061 3058 3053 3053 3052 3051 3051 3057 3051 3042 3041 3039 3040 3041 3042 3044 3046 3046 3050 3057 3068 3070 3080 3083 3086 3091 3096 3101 3108 3115 3119 3123 3118 3104 3119 3121 3105 3115 3118 3124 3130 3132 3135 3138
3063 3056 3051 3049 3046 3046 3044 3047 3044 3038 3035 3033 3034 3035 3037 3038 3038 3041 3042 3047 3055 3059 3065 3068 3075 3075 3078 3083 3090 3097 3105 3103 3105 3100 3106 3113 3096 3099 3107 3114 3119 3122 3127 3130 3132
3057 3053 3047 3044 3040 3040 3039 3039 3037 3033 3031 3030 3031 3031 3032 3033 3035 3036 3039 3045 3051 3055 3058 3060 3063 3065 3071 3078 3087 3092 3091 3101 3104 3103 3104 3096 3093 3096 3100 3104 3110 3115 3120 3124 3128
3051 3047 3043 3040 3037 3035 3034 3033 3032 3030 3030 3030 3030 3029 3028 3028 3031 3031 3034 3035 3041 3044 3049 3053 3057 3060 3065 3074 3079 3080 3090 3096 3099 3097 3096 3085 3087 3084 3088 3095 3101 3108 3113 3119 3124
3048 3043 3040 3036 3034 3032 3032 3031 3029 3028 3029 3030 3029 3027 3027 3026 3026 3027 3027 3031 3033 3036 3041 3046 3051 3056 3060 3058 3065 3073 3076 3082 3086 3086 3081 3079 3074 3078 3083 3089 3093 3099 3107 3113 3118
3045 3042 3038 3035 3035 3031 3031 3029 3028 3027 3026 3027 3027 3026 3026 3025 3025 3025 3025 3026 3028 3029 3034 3038 3045 3050 3052 3058 3063 3066 3069 3073 3076 3078 3077 3077 3073 3075 3077 3082 3088 3094 3099 3106 3112
3043 3041 3037 3034 3033 3032 3031 3029 3026 3024 3023 3023 3023 3023 3023 3025 3027 3024 3023 3025 3026 3027 3031 3035 3037 3046 3050 3054 3054 3057 3064 3068 3070 3072 3071 3072 3068 3073 3075 3079 3083 3087 3093 3098 3104
3042 3040 3037 3034 3032 3030 3028 3028 3025 3023 3021 3020 3020 3020 3020 3022 3023 3023 3023 3024 3025 3027 3028 3030 3032 3035 3036 3042 3046 3049 3054 3059 3062 3063 3061 3054 3065 3068 3072 3077 3082 3085 3090 3094 3098
3042 3039 3035 3034 3031 3030 3028 3026 3024 3022 3021 3020 3019 3017 3017 3019 3019 3020 3020 3023 3024 3025 3027 3030 3031 3031 3032 3034 3035 3038 3042 3046 3048 3052 3051 3050 3054 3065 3069 3074 3078 3081 3084 3088 3092
3042 3038 3034 3032 3030 3028 3027 3025 3024 3022 3020 3018 3018 3016 3017 3016 3017 3017 3018 3020 3021 3023 3025 3027 3030 3029 3029 3031 3032 3031 3032 3035 3039 3041 3043 3043 3045 3060 3061 3066 3069 3073 3078 3082 3085
3038 3035 3032 3029 3028 3026 3025 3023 3021 3020 3019 3017 3016 3014 3014 3014 3013 3015 3015 3016 3018 3019 3022 3024 3026 3029 3029 3029 3028 3025 3020 3028 3034 3036 3040 3034 3043 3050 3054 3059 3063 3066 3070 3074 3078